Wind_Speed
63 56 46 60 63 59 51 43 43 45 39 41 40 43 33 33 40 35 34 36 32 37 25 19 44 42 40 37 44 44 31 30 26 26 32 37 39 42 45 47 46 54 56 51
57 53 53 65 60 59 53 45 50 50 39 37 41 43 34 35 41 47 33 33 30 34 31 16 29 50 44 45 38 49 36 37 29 32 29 30 36 43 46 51 50 53 53 53
71 60 65 65 65 61 54 51 54 50 39 36 41 42 40 37 41 45 37 26 28 30 33 21 16 39 49 47 42 50 46 39 42 35 35 36 37 43 43 49 48 55 55 55
71 64 62 64 62 62 57 61 54 46 40 39 42 40 45 40 40 42 40 23 25 27 34 27 17 17 40 40 47 47 53 48 46 44 41 43 47 46 49 54 55 54 52 52
68 69 61 62 58 59 55 55 48 44 40 41 46 41 46 38 39 38 35 26 24 25 33 28 19 14 25 40 44 53 54 58 55 51 52 47 56 55 49 54 55 60 65 68
75 73 67 60 59 59 59 56 51 42 41 41 46 32 47 38 38 36 34 26 23 22 30 28 18 17 15 32 37 35 46 49 53 50 59 61 53 55 64 65 61 65 65 67
77 74 67 66 67 65 60 58 58 50 47 46 48 31 45 41 33 37 33 27 24 20 26 26 23 17 13 17 23 34 42 46 50 56 56 61 59 58 57 65 72 73 76 77
74 75 74 73 70 69 65 60 59 59 51 49 43 39 44 42 35 37 34 28 24 21 21 23 21 17 13 11 17 22 31 34 34 35 45 58 52 55 55 55 63 64 62 67
81 72 73 71 75 72 67 60 61 60 52 45 42 43 41 44 37 33 37 29 26 21 18 21 20 18 14 13 13 19 23 26 27 28 31 42 43 47 50 55 50 52 54 56
77 67 67 73 72 67 68 64 65 60 51 50 47 46 41 45 37 38 35 30 28 23 18 19 18 17 16 12 13 13 18 26 28 28 28 31 33 37 40 42 44 46 46 47
78 75 64 63 62 63 63 62 61 58 55 51 49 44 45 46 43 39 31 30 30 28 21 19 17 14 11 11 9 13 15 17 23 27 30 32 32 34 39 40 43 45 46 48
82 78 78 73 70 69 69 67 60 56 52 55 56 49 49 50 45 36 32 29 32 31 26 21 19 16 15 11 5 8 12 16 19 20 23 24 28 32 34 33 35 39 41 42
88 87 82 81 79 75 76 75 64 64 66 56 58 54 55 49 46 42 37 35 35 32 32 25 21 18 13 11 8 7 5 4 6 8 14 16 19 22 25 29 32 34 35 37
85 83 88 85 85 81 76 79 78 72 69 67 62 64 64 56 56 51 45 40 39 36 34 32 26 21 18 13 10 10 10 9 10 10 10 11 10 11 13 14 16 18 18 19
80 80 84 85 88 89 85 79 79 75 69 69 69 69 66 63 60 54 48 43 39 38 38 34 34 27 25 18 14 12 13 13 13 14 15 17 18 18 19 19 21 22 23 25
78 76 78 83 88 89 91 89 88 84 80 75 71 68 67 62 60 57 54 46 39 40 39 38 39 38 30 27 24 17 15 16 17 17 16 16 18 19 20 21 24 26 30 33
78 82 83 84 87 90 87 89 90 90 91 86 83 72 68 63 61 59 58 48 42 41 45 43 42 41 36 35 32 27 22 22 24 25 24 22 22 23 23 24 27 28 30 33
73 78 76 77 84 83 75 86 88 84 79 82 80 80 78 73 68 67 61 51 49 48 51 51 45 44 41 39 36 36 31 30 32 30 31 32 31 30 29 30 32 33 36 39
65 66 70 71 75 71 77 82 84 87 84 83 80 76 74 73 70 70 66 58 57 54 56 56 51 46 45 42 41 39 41 39 38 37 35 35 36 37 35 34 36 39 43 44
58 53 51 56 63 67 73 71 77 79 80 74 72 71 76 80 73 74 75 67 60 56 60 60 56 51 48 44 45 41 41 44 43 43 43 43 45 43 41 39 41 44 47 49
50 49 48 51 53 58 65 68 71 68 67 66 63 62 64 66 66 72 69 65 63 60 59 63 62 54 55 43 48 48 45 47 47 49 50 50 50 49 47 45 46 49 51 52
41 44 48 52 54 56 59 58 57 55 62 64 61 56 58 59 61 64 65 67 65 62 60 64 67 60 58 55 48 48 49 50 52 52 56 55 50 51 51 51 51 53 56 58
40 44 48 50 56 59 61 58 55 55 59 57 56 52 55 58 59 61 62 66 65 63 64 63 67 68 62 63 68 70 62 59 60 62 61 56 55 57 57 57 57 60 63 65
38 42 45 48 54 57 59 58 59 58 56 52 53 50 53 57 58 62 65 70 64 64 66 68 71 74 70 63 69 71 71 69 66 66 63 59 59 62 62 64 64 67 71 73
38 41 42 48 53 56 55 54 56 56 54 51 50 50 54 58 59 63 65 66 64 68 69 74 76 76 73 69 66 70 72 73 74 74 66 66 68 68 68 68 69 74 77 81
37 41 44 51 52 54 49 45 46 50 46 46 51 50 53 56 59 61 64 67 65 68 72 71 71 73 73 70 67 71 72 72 71 73 73 74 73 73 74 74 78 81 86 89
Wind_Direction
249 250 252 257 256 259 265 266 268 277 281 288 291 306 316 325 339 330 323 319 331 331 320 280 229 224 225 209 201 198 207 204 203 203 195 207 218 211 207 216 223 227 233 236
243 249 246 249 254 258 263 265 266 272 277 287 288 302 303 319 328 335 321 316 324 328 323 307 243 231 225 217 212 207 204 202 209 209 213 213 216 219 218 223 227 229 235 242
241 241 243 249 250 259 259 263 261 265 280 285 285 297 300 308 323 332 321 310 318 328 325 323 302 238 232 226 221 210 207 214 208 216 224 228 230 221 228 231 232 234 243 244
239 239 240 244 251 249 251 256 260 264 273 280 280 290 296 304 318 323 327 304 316 328 323 326 314 269 235 233 229 220 218 214 216 220 224 226 233 237 241 234 238 238 244 251
238 236 236 240 244 249 249 253 254 265 269 276 275 285 290 300 311 317 323 298 313 327 319 329 314 293 248 237 235 231 228 227 229 231 228 233 228 236 236 238 244 250 251 255
236 240 240 241 245 249 252 252 251 262 264 268 267 277 284 295 312 307 323 295 303 323 317 328 321 301 256 236 238 239 238 242 236 240 233 238 244 241 238 242 242 245 247 253
234 234 234 237 240 245 246 248 250 257 264 260 264 272 282 290 307 304 324 297 297 314 314 322 323 309 277 237 236 239 242 245 243 240 239 244 246 250 248 244 247 251 252 258
234 236 235 236 238 240 243 249 252 254 257 255 266 269 276 283 300 302 316 301 288 301 309 316 323 304 291 268 239 234 240 242 239 241 244 243 249 250 254 257 257 258 259 262
234 234 237 240 240 243 245 248 250 254 251 250 258 267 265 278 294 296 300 302 279 288 298 305 311 313 285 268 270 249 240 240 238 239 242 245 249 254 256 258 261 264 265 268
231 236 241 239 239 245 246 248 251 252 240 248 254 260 258 272 283 292 294 299 274 275 282 295 296 303 298 276 261 261 253 246 244 245 242 243 248 253 254 255 259 261 264 264
229 230 237 244 247 246 243 243 243 245 240 246 252 255 252 260 279 285 287 293 273 270 272 281 286 291 297 292 280 261 252 250 249 247 249 253 258 262 264 262 261 263 264 267
227 225 227 233 237 239 244 248 242 240 246 248 253 253 252 267 274 272 273 278 274 264 267 271 279 277 272 284 318 282 262 249 252 255 259 259 256 255 257 261 261 263 267 270
229 228 226 232 238 242 243 246 248 245 248 252 253 250 254 260 258 262 261 265 261 258 258 258 268 276 283 278 276 288 296 257 242 246 247 250 254 257 262 265 268 269 269 267
231 231 231 232 235 239 238 241 241 245 243 243 250 249 256 257 258 263 261 261 255 254 248 257 254 262 271 280 287 278 272 264 279 287 268 258 246 247 256 261 270 278 275 273
228 230 231 230 232 235 238 237 242 244 244 244 245 247 251 257 257 253 259 266 253 255 250 252 257 252 259 263 264 264 272 278 284 281 282 290 292 295 297 297 297 290 279 277
226 226 230 232 233 235 238 241 242 244 243 244 245 247 253 253 248 252 266 266 246 251 248 247 253 256 251 254 257 256 262 274 273 273 277 281 286 286 289 293 300 295 291 286
227 228 228 228 231 233 235 242 244 242 243 246 248 247 246 244 245 250 259 256 248 248 241 238 248 255 255 251 251 249 252 259 267 272 277 279 281 283 290 294 296 296 295 292
229 229 230 228 229 231 231 239 244 245 243 245 245 247 247 244 246 247 248 247 246 241 234 232 240 247 252 255 254 255 252 253 259 266 273 276 279 281 283 287 293 295 296 295
232 229 229 230 234 234 236 238 240 243 244 244 243 243 242 244 245 246 245 243 244 236 233 231 233 240 245 253 255 257 258 261 259 262 267 271 275 279 280 285 290 293 291 292
231 229 227 229 231 233 235 235 237 240 242 244 243 242 242 246 248 247 250 246 241 231 231 230 231 237 241 246 251 248 253 254 258 265 269 272 275 278 279 282 287 289 289 290
234 234 230 229 225 225 228 231 235 236 238 240 240 238 238 238 238 241 242 240 233 228 230 229 229 235 236 245 247 246 247 251 258 263 269 271 275 279 280 284 286 287 289 292
230 229 227 226 224 226 228 228 230 231 232 233 232 232 233 230 230 232 235 235 226 225 229 230 231 230 236 234 236 244 249 253 259 261 265 265 271 275 279 283 285 286 288 290
222 224 223 221 223 222 224 224 224 221 229 226 227 223 225 226 228 230 232 231 226 224 229 231 232 233 238 241 249 250 244 244 247 252 259 271 272 275 279 282 284 286 288 290
219 223 223 223 224 228 227 223 225 227 228 225 226 219 221 221 223 226 225 227 224 227 231 233 233 233 233 241 248 253 256 260 258 259 264 268 272 276 279 282 286 288 289 289
219 220 220 224 225 227 228 222 222 226 227 224 224 222 218 221 222 223 227 227 224 228 230 235 235 233 237 239 247 252 258 261 264 269 269 271 275 277 279 282 284 287 289 290
220 220 219 225 227 230 229 227 221 223 225 225 224 222 219 221 222 225 226 230 226 231 233 237 243 240 240 242 248 252 256 261 264 268 271 275 279 280 281 281 283 287 290 292
Height
10593 10607 10620 10612 10611 10617 10624 10631 10630 10628 10633 10634 10634 10627 10625 10624 10621 10615 10611 10609 10605 10601 10597 10593 10594 10598 10604 10610 10616 10621 10626 10633 10637 10640 10645 10649 10654 10658 10661 10664 10669 10671 10673 10677
10582 10599 10601 10592 10601 10607 10613 10620 10618 10618 10623 10628 10627 10621 10620 10617 10615 10610 10605 10603 10601 10597 10593 10588 10586 10589 10596 10602 10608 10615 10620 10628 10633 10637 10641 10645 10650 10654 10656 10659 10663 10664 10666 10669
10566 10576 10581 10585 10591 10597 10602 10607 10604 10609 10615 10620 10619 10614 10612 10611 10609 10604 10600 10596 10596 10593 10588 10583 10580 10580 10587 10594 10601 10609 10615 10620 10625 10632 10638 10641 10644 10648 10650 10652 10654 10656 10658 10660
10551 10561 10565 10572 10580 10580 10589 10588 10595 10601 10607 10610 10611 10609 10604 10604 10602 10598 10596 10592 10590 10588 10584 10579 10575 10573 10576 10584 10593 10601 10609 10613 10620 10624 10630 10634 10639 10641 10643 10646 10647 10649 10650 10652
10536 10542 10548 10557 10565 10565 10578 10580 10587 10591 10598 10601 10600 10603 10593 10597 10596 10592 10590 10588 10585 10583 10579 10575 10571 10569 10568 10575 10583 10591 10599 10606 10612 10618 10621 10627 10629 10634 10638 10639 10641 10643 10644 10644
10518 10526 10533 10544 10549 10556 10562 10567 10574 10580 10587 10592 10587 10595 10580 10590 10588 10584 10584 10583 10581 10579 10576 10571 10568 10567 10567 10569 10573 10580 10588 10594 10601 10606 10613 10616 10619 10624 10627 10630 10630 10631 10633 10635
10498 10510 10518 10526 10535 10541 10548 10553 10560 10569 10576 10580 10580 10586 10580 10579 10582 10576 10578 10576 10576 10575 10572 10568 10565 10564 10564 10564 10567 10572 10577 10583 10588 10594 10599 10604 10608 10611 10615 10617 10619 10619 10620 10620
10483 10492 10502 10511 10520 10525 10531 10537 10549 10555 10563 10565 10573 10578 10575 10569 10574 10568 10571 10570 10572 10571 10569 10567 10563 10561 10560 10561 10563 10565 10570 10575 10577 10582 10587 10591 10596 10598 10600 10603 10606 10608 10607 10605
10468 10478 10487 10494 10501 10507 10519 10528 10530 10539 10550 10555 10563 10568 10569 10559 10566 10564 10561 10565 10567 10566 10565 10563 10562 10558 10558 10558 10559 10560 10563 10567 10571 10574 10576 10581 10584 10586 10588 10589 10590 10591 10591 10589
10454 10463 10470 10478 10488 10494 10502 10508 10515 10528 10537 10543 10553 10556 10560 10552 10558 10559 10555 10557 10560 10561 10560 10560 10558 10555 10554 10554 10554 10556 10557 10560 10562 10567 10568 10571 10573 10576 10576 10577 10578 10580 10579 10577
10437 10451 10458 10463 10471 10474 10483 10493 10501 10510 10522 10530 10539 10547 10549 10542 10549 10550 10550 10550 10553 10555 10556 10556 10555 10553 10552 10551 10550 10550 10551 10554 10555 10557 10558 10560 10563 10565 10566 10567 10567 10567 10563 10564
10415 10434 10444 10452 10455 10458 10467 10478 10485 10499 10511 10517 10525 10534 10535 10533 10538 10543 10541 10543 10544 10548 10549 10550 10550 10549 10548 10547 10546 10546 10545 10547 10548 10550 10550 10552 10554 10556 10557 10556 10555 10554 10552 10553
10397 10414 10429 10434 10436 10445 10455 10463 10473 10483 10492 10509 10514 10524 10522 10525 10525 10532 10533 10532 10535 10538 10541 10543 10544 10544 10543 10542 10541 10542 10541 10542 10544 10545 10545 10547 10547 10548 10548 10547 10546 10545 10544 10545
10379 10397 10410 10418 10419 10426 10439 10444 10453 10462 10480 10494 10507 10507 10510 10513 10509 10519 10524 10522 10525 10529 10533 10535 10537 10539 10538 10536 10535 10537 10538 10538 10539 10540 10540 10540 10540 10540 10541 10540 10538 10537 10537 10537
10363 10378 10388 10397 10403 10410 10417 10431 10434 10450 10470 10473 10488 10491 10496 10499 10496 10503 10511 10516 10518 10521 10526 10527 10529 10530 10533 10533 10531 10532 10534 10534 10535 10535 10535 10534 10533 10532 10531 10531 10531 10532 10531 10531
10345 10358 10366 10378 10386 10393 10401 10415 10421 10431 10444 10458 10466 10477 10479 10484 10483 10487 10499 10505 10510 10510 10514 10517 10518 10519 10523 10526 10527 10526 10527 10528 10529 10529 10529 10529 10528 10527 10527 10526 10525 10524 10523 10522
10325 10334 10342 10356 10360 10367 10387 10392 10395 10411 10422 10438 10447 10458 10461 10466 10470 10472 10483 10491 10498 10500 10504 10507 10507 10509 10513 10515 10518 10519 10520 10521 10521 10522 10523 10523 10522 10521 10520 10519 10517 10516 10514 10512
10306 10314 10327 10343 10342 10351 10385 10372 10378 10390 10407 10414 10427 10437 10443 10448 10453 10454 10465 10474 10480 10483 10485 10492 10498 10501 10504 10506 10508 10510 10511 10511 10512 10513 10513 10513 10513 10512 10510 10509 10507 10505 10503 10501
10288 10302 10313 10324 10328 10350 10359 10359 10368 10371 10386 10393 10404 10414 10422 10429 10436 10442 10449 10457 10462 10466 10473 10479 10485 10489 10493 10496 10497 10500 10501 10501 10502 10502 10502 10502 10501 10500 10499 10498 10496 10493 10491 10488
10274 10289 10304 10312 10320 10332 10337 10343 10348 10355 10369 10372 10384 10395 10405 10410 10425 10433 10432 10440 10450 10454 10458 10465 10472 10478 10481 10484 10487 10489 10491 10491 10491 10492 10492 10491 10490 10489 10487 10485 10483 10480 10477 10474
10270 10281 10290 10297 10305 10310 10313 10324 10330 10343 10353 10357 10368 10378 10387 10394 10408 10409 10416 10425 10434 10440 10445 10452 10458 10465 10468 10471 10474 10477 10479 10481 10480 10480 10480 10479 10478 10477 10475 10472 10469 10466 10462 10458
10260 10267 10273 10283 10291 10297 10301 10311 10319 10331 10333 10341 10352 10366 10374 10381 10390 10396 10401 10409 10420 10427 10435 10439 10445 10449 10453 10454 10457 10463 10466 10467 10468 10466 10464 10466 10465 10463 10461 10458 10454 10451 10447 10442
10247 10252 10260 10269 10276 10283 10288 10297 10306 10314 10320 10330 10338 10351 10361 10369 10376 10384 10394 10401 10409 10415 10420 10427 10434 10437 10440 10445 10448 10449 10448 10448 10448 10449 10450 10451 10450 10448 10446 10444 10440 10436 10430 10425
10239 10244 10251 10261 10264 10271 10277 10288 10294 10304 10312 10321 10329 10340 10348 10356 10364 10373 10380 10386 10398 10403 10408 10413 10416 10419 10425 10430 10432 10434 10437 10439 10439 10438 10438 10438 10436 10433 10431 10428 10423 10418 10412 10406
10227 10232 10241 10247 10253 10258 10265 10278 10287 10296 10305 10315 10322 10330 10338 10346 10354 10362 10370 10377 10384 10388 10394 10395 10399 10405 10413 10416 10421 10423 10424 10424 10424 10423 10423 10422 10420 10418 10414 10410 10405 10399 10392 10385
10219 10225 10232 10234 10242 10247 10258 10269 10281 10287 10298 10307 10313 10321 10330 10340 10347 10354 10359 10364 10372 10376 10381 10385 10390 10397 10401 10404 10406 10406 10407 10408 10408 10407 10406 10404 10402 10400 10395 10391 10385 10379 10372 10363